DW3544 Weather Reports


Display with metric or nautical units.
time (UTC)temp
F
wind
direction
speed
MPH
gust
MPH
rain 1hr
in
rain 24hr
in
rain mn
in
humidity
%
barometer
mb
20260503225503 63 329 1.0 3.0 0.00 0.00 0.00 29 1013.4
20260503225003 62 306 2.0 4.0 0.00 0.00 0.00 28 1013.4
20260503224003 62 276 3.0 8.0 0.00 0.00 0.00 27 1013.4
20260503223003 62 324 3.0 8.0 0.00 0.00 0.00 25 1013.4
20260503222502 62 314 4.0 9.0 0.00 0.00 0.00 26 1013.4
20260503222004 62 310 4.0 10.0 0.00 0.00 0.00 28 1013.4
20260503221003 62 306 6.0 10.0 0.00 0.00 0.00 29 1013.5
20260503220502 62 307 7.0 12.0 0.00 0.00 0.00 27 1013.5
20260503220004 62 279 8.0 16.0 0.00 0.00 0.00 25 1013.6
20260503215503 61 263 9.0 16.0 0.00 0.00 0.00 25 1013.4
20260503215003 62 271 9.0 16.0 0.00 0.00 0.00 25 1013.6
20260503214503 62 267 8.0 13.0 0.00 0.00 0.00 25 1013.5
20260503213502 62 302 4.0 12.0 0.00 0.00 0.00 29 1013.6
20260503212502 62 273 6.0 11.0 0.00 0.00 0.00 28 1013.6
20260503212003 62 272 7.0 16.0 0.00 0.00 0.00 25 1013.7
20260503211502 61 279 9.0 16.0 0.00 0.00 0.00 26 1013.7
20260503210502 62 273 9.0 19.0 0.00 0.00 0.00 27 1013.8
20260503210003 61 278 9.0 19.0 0.00 0.00 0.00 27 1013.8
20260503205003 62 291 6.0 13.0 0.00 0.00 0.00 27 1013.7
20260503204502 61 267 7.0 13.0 0.00 0.00 0.00 29 1013.8
20260503204003 61 262 7.0 12.0 0.00 0.00 0.00 30 1013.8
20260503203502 61 278 8.0 13.0 0.00 0.00 0.00 28 1013.9
20260503203003 61 278 7.0 13.0 0.00 0.00 0.00 28 1013.9
20260503202502 61 277 4.0 13.0 0.00 0.00 0.00 27 1013.9
20260503202003 61 327 4.0 12.0 0.00 0.00 0.00 27 1014.1
20260503201502 60 344 4.0 13.0 0.00 0.00 0.00 29 1014.3
20260503201002 60 299 7.0 13.0 0.00 0.00 0.00 28 1014.1
20260503200501 60 280 7.0 17.0 0.00 0.00 0.00 32 1014.2
20260503200003 60 275 7.0 17.0 0.00 0.00 0.00 28 1014.3
20260503195501 60 277 8.0 18.0 0.00 0.00 0.00 33 1014.4
20260503195003 60 276 9.0 18.0 0.00 0.00 0.00 28 1014.5
20260503194502 59 278 10.0 17.0 0.00 0.00 0.00 27 1014.4
20260503194003 59 278 10.0 17.0 0.00 0.00 0.00 30 1014.5
20260503193002 59 264 9.0 18.0 0.00 0.00 0.00 28 1014.7
20260503192502 60 255 8.0 16.0 0.00 0.00 0.00 30 1014.8
20260503192003 59 270 6.0 16.0 0.00 0.00 0.00 32 1014.9
20260503191502 59 295 4.0 11.0 0.00 0.00 0.00 31 1015.1
20260503191003 59 256 8.0 20.0 0.00 0.00 0.00 33 1015.2
20260503190502 59 250 8.0 20.0 0.00 0.00 0.00 32 1015.3
20260503190003 59 275 6.0 16.0 0.00 0.00 0.00 34 1015.2
20260503185502 59 266 6.0 13.0 0.00 0.00 0.00 32 1015.3
20260503185004 58 250 6.0 13.0 0.00 0.00 0.00 35 1015.4
20260503184502 57 260 8.0 15.0 0.00 0.00 0.00 37 1015.4
20260503184003 57 254 9.0 15.0 0.00 0.00 0.00 35 1015.6
20260503183502 58 268 9.0 15.0 0.00 0.00 0.00 40 1015.6
20260503182502 58 261 8.0 17.0 0.00 0.00 0.00 35 1015.7
20260503181503 58 295 7.0 11.0 0.00 0.00 0.00 37 1015.5
20260503181002 57 283 8.0 17.0 0.00 0.00 0.00 35 1015.6
20260503180003 57 296 7.0 18.0 0.00 0.00 0.00 36 1015.7
20260503175502 56 312 6.0 18.0 0.00 0.00 0.00 37 1015.7
20260503175002 56 315 7.0 16.0 0.00 0.00 0.00 35 1015.7
20260503174503 56 306 9.0 16.0 0.00 0.00 0.00 33 1015.7
20260503174003 56 285 9.0 16.0 0.00 0.00 0.00 36 1015.8
20260503173502 56 244 8.0 19.0 0.00 0.00 0.00 37 1015.7
20260503173004 56 233 7.0 19.0 0.00 0.00 0.00 40 1015.7
20260503172502 56 240 7.0 16.0 0.00 0.00 0.00 40 1015.8
20260503172003 55 232 7.0 16.0 0.00 0.00 0.00 41 1015.9
20260503171002 55 253 7.0 15.0 0.00 0.00 0.00 36 1016.0
20260503170502 55 275 7.0 13.0 0.00 0.00 0.00 35 1016.0
20260503151002 51 299 7.0 12.0 0.00 0.00 0.00 41 1017.1
20260503150502 51 305 6.0 13.0 0.00 0.00 0.00 45 1017.3
20260503131004 46 313 6.0 12.0 0.00 0.00 0.00 49 1017.1
20260503130502 46 310 6.0 11.0 0.00 0.00 0.00 51 1017.0
20260503110502 40 266 2.0 3.0 0.00 0.00 0.00 63 1016.2
20260503081503 42 293 4.0 10.0 0.00 0.00 0.00 58 1014.5
20260503081004 42 288 4.0 10.0 0.00 0.00 0.00 60 1014.6
20260503072504 41 305 2.0 4.0 0.00 0.00 0.00 61 1014.3
20260503072003 42 311 2.0 4.0 0.00 0.00 0.00 61 1014.2
20260503071502 42 303 2.0 8.0 0.00 0.00 0.00 61 1014.1
20260503071003 42 302 3.0 10.0 0.00 0.00 0.00 61 1014.1
20260503070502 42 314 3.0 10.0 0.00 0.00 0.00 60 1014.1
20260503055003 42 278 1.0 3.0 0.00 0.00 0.00 63 1013.9
20260503054503 42 279 1.0 2.0 0.00 0.00 0.00 61 1013.9
20260503054003 42 276 2.0 6.0 0.00 0.00 0.00 61 1013.8
20260503053503 43 279 2.0 6.0 0.00 0.00 0.00 61 1013.8
20260503053003 43 310 1.0 8.0 0.00 0.00 0.00 61 1013.9
20260503052004 43 28 2.0 4.0 0.00 0.00 0.00 60 1013.9
20260503051504 43 14 1.0 4.0 0.00 0.00 0.00 60 1013.9
20260503051003 44 333 1.0 2.0 0.00 0.00 0.00 59 1013.9
20260503050503 44 331 1.0 6.0 0.00 0.00 0.00 59 1014.0
20260503050003 44 329 2.0 6.0 0.00 0.00 0.00 58 1013.9
20260503045502 44 1 2.0 6.0 0.00 0.00 0.00 58 1014.1
20260503045003 45 41 2.0 6.0 0.00 0.00 0.00 58 1014.1
20260503044503 45 325 2.0 9.0 0.00 0.00 0.00 58 1014.1
20260503044004 45 309 3.0 9.0 0.00 0.00 0.00 57 1014.2
20260503043502 45 310 3.0 10.0 0.00 0.00 0.00 57 1014.1
20260503042503 45 300 4.0 9.0 0.00 0.00 0.00 56 1014.0
20260503042003 45 297 3.0 8.0 0.00 0.00 0.00 56 1014.0
20260503041503 46 298 3.0 7.0 0.00 0.00 0.00 56 1013.9
20260503040502 46 284 3.0 9.0 0.00 0.00 0.00 56 1013.8
20260503040007 46 290 3.0 9.0 0.00 0.00 0.00 56 1013.8
20260503035503 46 304 4.0 9.0 0.00 0.00 0.00 56 1013.9
20260503035003 46 306 4.0 9.0 0.00 0.00 0.00 55 1013.7
20260503034503 46 301 4.0 9.0 0.00 0.00 0.00 55 1013.6
20260503034003 46 297 4.0 9.0 0.00 0.00 0.00 54 1013.6
20260503033503 46 302 4.0 10.0 0.00 0.00 0.00 54 1013.6
20260503033003 47 306 4.0 10.0 0.00 0.00 0.00 53 1013.6
20260503032503 47 299 4.0 9.0 0.00 0.00 0.00 53 1013.5
20260503032004 47 292 4.0 9.0 0.00 0.00 0.00 53 1013.6
20260503031503 47 293 6.0 10.0 0.00 0.00 0.00 53 1013.5
20260503031003 47 294 7.0 10.0 0.00 0.00 0.00 52 1013.5
20260503030502 48 290 7.0 11.0 0.00 0.00 0.00 51 1013.5
20260503030004 48 287 6.0 11.0 0.00 0.00 0.00 50 1013.3
20260503025502 48 286 6.0 10.0 0.00 0.00 0.00 49 1013.3
20260503025003 48 296 4.0 9.0 0.00 0.00 0.00 49 1013.3
20260503024003 49 296 3.0 7.0 0.00 0.00 0.00 48 1013.4
20260503023503 49 307 2.0 4.0 0.00 0.00 0.00 48 1013.4
20260503023003 49 337 2.0 4.0 0.00 0.00 0.00 48 1013.4
20260503022003 49 349 1.0 6.0 0.00 0.00 0.00 47 1013.4
20260503021502 50 308 2.0 4.0 0.00 0.00 0.00 46 1013.3
20260503020503 50 296 2.0 6.0 0.00 0.00 0.00 45 1013.4
20260503020003 50 322 2.0 4.0 0.00 0.00 0.00 45 1013.3
20260503015503 50 336 2.0 4.0 0.00 0.00 0.00 45 1013.4
20260503015004 50 335 1.0 4.0 0.00 0.00 0.00 43 1013.4
20260503014502 50 318 2.0 4.0 0.00 0.00 0.00 44 1013.4
20260503014004 50 315 2.0 6.0 0.00 0.00 0.00 44 1013.3
20260503013003 50 292 1.0 3.0 0.00 0.00 0.00 42 1013.2
20260503012003 50 295 2.0 3.0 0.00 0.00 0.00 43 1013.0
20260503011502 51 300 2.0 6.0 0.00 0.00 0.00 42 1012.9
20260503010502 51 290 2.0 9.0 0.00 0.00 0.00 42 1012.7
20260503010004 51 293 3.0 9.0 0.00 0.00 0.00 41 1012.7
20260503005503 51 305 4.0 9.0 0.00 0.00 0.00 42 1012.6
20260503005003 51 313 3.0 9.0 0.00 0.00 0.00 42 1012.5
20260503004504 51 302 3.0 10.0 0.00 0.00 0.00 40 1012.3
20260503004004 51 301 4.0 10.0 0.00 0.00 0.00 41 1012.3
20260503003503 51 307 4.0 9.0 0.00 0.00 0.00 42 1012.2
20260503003003 51 310 3.0 9.0 0.00 0.00 0.00 42 1012.1
20260503002502 51 299 3.0 7.0 0.00 0.00 0.00 42 1012.1
20260503002003 51 293 3.0 7.0 0.00 0.00 0.00 41 1012.0
20260503001003 51 301 3.0 7.0 0.00 0.00 0.00 42 1011.9
20260503000503 52 304 4.0 8.0 0.00 0.00 0.00 40 1011.8
20260503000003 52 311 4.0 9.0 0.00 0.00 0.00 38 1011.8
20260502235503 52 310 3.0 9.0 0.00 0.00 0.00 40 1011.8
20260502235004 52 307 3.0 9.0 0.00 0.00 0.00 40 1011.7
20260502234503 52 303 4.0 11.0 0.00 0.00 0.00 40 1011.7
20260502234003 52 301 6.0 11.0 0.00 0.00 0.00 39 1011.6
20260502233502 52 297 4.0 11.0 0.00 0.00 0.00 40 1011.6
20260502233003 52 297 4.0 11.0 0.00 0.00 0.00 39 1011.5
20260502232504 52 302 4.0 10.0 0.00 0.00 0.00 40 1011.4
20260502232004 52 310 4.0 11.0 0.00 0.00 0.00 40 1011.5
20260502231502 53 316 3.0 11.0 0.00 0.00 0.00 39 1011.4
20260502231004 53 309 4.0 11.0 0.00 0.00 0.00 41 1011.4
20260502230503 53 314 3.0 11.0 0.00 0.00 0.00 40 1011.4